| time (UTC) | temp F | wind direction | speed knots | gust knots | rain 1hr in | rain 24hr in | rain mn in | humidity % | barometer mb |
| 20260905031548 | 65 | 252 | 0.0 | 0.9 | 0.00 | 0.06 | 0.03 | 89 | 1010.7 |
| 20260905030047 | 65 | 252 | 0.0 | 0.0 | 0.00 | 0.06 | 0.03 | 89 | 1010.8 |
| 20260905024550 | 65 | 252 | 0.0 | 0.0 | 0.00 | 0.06 | 0.03 | 89 | 1010.7 |
| 20260905023120 | 65 | 252 | 0.0 | 0.0 | 0.00 | 0.06 | 0.03 | 89 | 1010.8 |
| 20260905021545 | 65 | 252 | 0.0 | 0.0 | 0.00 | 0.06 | 0.03 | 88 | 1010.8 |
| 20260905020044 | 65 | 252 | 0.0 | 0.0 | 0.00 | 0.06 | 0.03 | 87 | 1010.8 |
| 20260905014541 | 66 | 252 | 0.0 | 0.9 | 0.00 | 0.21 | 0.03 | 86 | 1010.8 |
| 20260905013040 | 66 | 252 | 0.0 | 0.9 | 0.00 | 0.21 | 0.03 | 85 | 1010.7 |
| 20260905011546 | 67 | 252 | 0.0 | 0.0 | 0.00 | 0.21 | 0.03 | 84 | 1010.8 |
| 20260905010042 | 67 | 252 | 0.0 | 0.0 | 0.00 | 0.21 | 0.03 | 85 | 1010.7 |
| 20260905004536 | 68 | 252 | 0.0 | 0.0 | 0.00 | 0.21 | 0.03 | 84 | 1010.9 |
| 20260905003036 | 68 | 252 | 0.0 | 0.0 | 0.00 | 0.21 | 0.03 | 85 | 1010.6 |
| 20260905001536 | 68 | 252 | 0.0 | 0.0 | 0.00 | 0.21 | 0.03 | 84 | 1010.5 |
| 20260905000035 | 69 | 252 | 0.0 | 0.9 | 0.00 | 0.21 | 0.03 | 82 | 1010.3 |
| 20260904234536 | 69 | 252 | 0.0 | 0.0 | 0.00 | 0.21 | 0.03 | 81 | 1010.4 |
| 20260904233034 | 70 | 252 | 0.0 | 0.0 | 0.00 | 0.21 | 0.03 | 79 | 1010.3 |
| 20260904231535 | 71 | 252 | 0.0 | 0.0 | 0.00 | 0.21 | 0.03 | 79 | 1010.1 |
| 20260904230033 | 71 | 252 | 0.0 | 0.0 | 0.00 | 0.21 | 0.03 | 78 | 1009.9 |
| 20260904224532 | 72 | 252 | 0.0 | 0.9 | 0.00 | 0.21 | 0.03 | 75 | 1010.0 |
| 20260904223034 | 73 | 252 | 0.0 | 0.9 | 0.00 | 0.21 | 0.03 | 74 | 1010.2 |
| 20260904221531 | 73 | 252 | 0.0 | 1.7 | 0.00 | 0.21 | 0.03 | 74 | 1010.5 |
| 20260904220058 | 73 | 252 | 0.0 | 1.7 | 0.00 | 0.21 | 0.03 | 72 | 1010.6 |
| 20260904214530 | 74 | 252 | 0.0 | 1.7 | 0.00 | 0.21 | 0.03 | 72 | 1010.8 |
| 20260904213034 | 74 | 251 | 0.0 | 2.6 | 0.00 | 0.21 | 0.03 | 73 | 1010.6 |
| 20260904211529 | 74 | 214 | 0.0 | 2.6 | 0.00 | 0.21 | 0.03 | 71 | 1010.1 |
| 20260904210035 | 74 | 209 | 0.0 | 1.7 | 0.00 | 0.21 | 0.03 | 75 | 1010.1 |
| 20260904204527 | 75 | 282 | 0.0 | 0.0 | 0.00 | 0.21 | 0.03 | 72 | 1010.1 |
| 20260904203035 | 75 | 282 | 0.0 | 2.6 | 0.00 | 0.21 | 0.03 | 72 | 1010.2 |
| 20260904201526 | 76 | 282 | 0.9 | 4.3 | 0.00 | 0.21 | 0.03 | 69 | 1010.3 |
| 20260904200034 | 76 | 188 | 0.9 | 2.6 | 0.00 | 0.21 | 0.03 | 69 | 1010.6 |
| 20260904194543 | 76 | 226 | 0.9 | 3.5 | 0.00 | 0.21 | 0.03 | 66 | 1010.9 |
| 20260904193023 | 77 | 304 | 0.9 | 3.5 | 0.00 | 0.21 | 0.03 | 68 | 1010.9 |
| 20260904191535 | 77 | 302 | 0.9 | 3.5 | 0.00 | 0.21 | 0.03 | 67 | 1010.9 |
| 20260904190021 | 78 | 310 | 1.7 | 3.5 | 0.00 | 0.21 | 0.03 | 65 | 1011.0 |
| 20260904184519 | 77 | 310 | 0.9 | 3.5 | 0.00 | 0.21 | 0.03 | 67 | 1011.1 |
| 20260904183016 | 77 | 261 | 0.9 | 3.5 | 0.00 | 0.21 | 0.03 | 70 | 1011.4 |
| 20260904181515 | 76 | 269 | 0.9 | 2.6 | 0.00 | 0.21 | 0.03 | 73 | 1011.4 |
| 20260904180013 | 76 | 286 | 1.7 | 3.5 | 0.00 | 0.21 | 0.03 | 71 | 1011.4 |
| 20260904174521 | 76 | 319 | 0.9 | 2.6 | 0.00 | 0.21 | 0.03 | 68 | 1011.4 |
| 20260904173012 | 76 | 167 | 0.9 | 2.6 | 0.00 | 0.21 | 0.03 | 73 | 1011.4 |
| 20260904171511 | 74 | 289 | 0.0 | 3.5 | 0.00 | 0.21 | 0.03 | 72 | 1011.4 |
| 20260904170010 | 76 | 329 | 1.7 | 3.5 | 0.00 | 0.21 | 0.03 | 73 | 1011.5 |
| 20260904164508 | 75 | 306 | 0.9 | 2.6 | 0.00 | 0.21 | 0.03 | 76 | 1011.5 |
| 20260904163007 | 74 | 360 | 0.9 | 2.6 | 0.00 | 0.21 | 0.03 | 75 | 1011.6 |
| 20260904161506 | 75 | 273 | 0.9 | 2.6 | 0.00 | 0.21 | 0.03 | 77 | 1011.6 |
| 20260904160007 | 75 | 319 | 0.9 | 3.5 | 0.00 | 0.21 | 0.03 | 75 | 1011.7 |
| 20260904154503 | 74 | 295 | 1.7 | 3.5 | 0.00 | 0.21 | 0.03 | 76 | 1011.7 |
| 20260904153115 | 72 | 310 | 0.9 | 3.5 | 0.00 | 0.21 | 0.03 | 83 | 1011.7 |
| 20260904151600 | 71 | 292 | 1.7 | 4.3 | 0.00 | 0.21 | 0.03 | 84 | 1011.6 |
| 20260904150054 | 71 | 301 | 0.0 | 3.5 | 0.00 | 0.21 | 0.03 | 87 | 1011.9 |
| 20260904144513 | 70 | 300 | 0.0 | 2.6 | 0.00 | 0.21 | 0.03 | 91 | 1011.8 |
| 20260904143041 | 69 | 304 | 0.9 | 2.6 | 0.00 | 0.21 | 0.03 | 91 | 1011.9 |
| 20260904141538 | 68 | 310 | 0.9 | 4.3 | 0.00 | 0.21 | 0.03 | 92 | 1011.9 |
| 20260904140042 | 68 | 296 | 0.9 | 3.5 | 0.00 | 0.21 | 0.03 | 94 | 1011.8 |
| 20260904134544 | 68 | 240 | 0.0 | 1.7 | 0.00 | 0.21 | 0.03 | 95 | 1011.6 |
| 20260904133037 | 68 | 237 | 0.9 | 2.6 | 0.00 | 0.21 | 0.03 | 94 | 1011.5 |
| 20260904131536 | 68 | 236 | 0.0 | 1.7 | 0.00 | 0.21 | 0.03 | 95 | 1011.3 |
| 20260904130036 | 69 | 226 | 0.9 | 2.6 | 0.00 | 0.21 | 0.03 | 95 | 1011.6 |
| 20260904124540 | 68 | 226 | 0.0 | 1.7 | 0.00 | 0.21 | 0.03 | 95 | 1011.8 |
| 20260904123043 | 68 | 157 | 0.0 | 1.7 | 0.00 | 0.21 | 0.03 | 95 | 1011.7 |
| 20260904121533 | 68 | 131 | 0.0 | 1.7 | 0.00 | 0.21 | 0.03 | 95 | 1011.8 |
| 20260904120031 | 68 | 131 | 0.0 | 0.9 | 0.00 | 0.21 | 0.03 | 95 | 1011.8 |
| 20260904114530 | 68 | 131 | 0.0 | 1.7 | 0.00 | 0.21 | 0.03 | 95 | 1011.9 |
| 20260904113029 | 68 | 88 | 0.0 | 0.9 | 0.00 | 0.21 | 0.03 | 95 | 1011.7 |
| 20260904111528 | 68 | 88 | 0.0 | 0.9 | 0.00 | 0.21 | 0.03 | 95 | 1011.2 |
| 20260904110037 | 68 | 88 | 0.0 | 0.9 | 0.00 | 0.21 | 0.03 | 95 | 1011.3 |
| 20260904104527 | 68 | 88 | 0.0 | 0.9 | 0.00 | 0.22 | 0.03 | 95 | 1011.0 |
| 20260904103026 | 68 | 88 | 0.0 | 0.9 | 0.00 | 0.22 | 0.03 | 95 | 1011.0 |
| 20260904101525 | 68 | 88 | 0.0 | 0.0 | 0.00 | 0.22 | 0.03 | 95 | 1011.0 |
| 20260904100025 | 68 | 88 | 0.0 | 1.7 | 0.00 | 0.22 | 0.03 | 95 | 1011.0 |
| 20260904094523 | 68 | 88 | 0.0 | 1.7 | 0.00 | 0.22 | 0.03 | 95 | 1011.0 |
| 20260904093023 | 68 | 88 | 0.0 | 1.7 | 0.00 | 0.22 | 0.03 | 95 | 1011.0 |
| 20260904091622 | 68 | 88 | 0.0 | 0.9 | 0.00 | 0.22 | 0.03 | 95 | 1010.9 |
| 20260904090023 | 68 | 88 | 0.0 | 0.0 | 0.00 | 0.22 | 0.03 | 95 | 1011.0 |
| 20260904084523 | 68 | 88 | 0.0 | 0.9 | 0.00 | 0.22 | 0.03 | 95 | 1011.0 |
| 20260904083023 | 68 | 88 | 0.0 | 0.9 | 0.00 | 0.22 | 0.03 | 95 | 1011.0 |
| 20260904081520 | 67 | 88 | 0.0 | 0.9 | 0.00 | 0.22 | 0.03 | 94 | 1010.9 |
| 20260904080019 | 68 | 88 | 0.0 | 0.9 | 0.00 | 0.22 | 0.03 | 95 | 1010.9 |
| 20260904074518 | 67 | 88 | 0.0 | 0.9 | 0.00 | 0.31 | 0.03 | 95 | 1010.8 |
| 20260904073020 | 67 | 88 | 0.0 | 0.9 | 0.00 | 0.31 | 0.03 | 94 | 1010.6 |
| 20260904071517 | 67 | 88 | 0.0 | 0.0 | 0.00 | 0.31 | 0.03 | 94 | 1010.2 |
| 20260904070035 | 67 | 88 | 0.0 | 0.0 | 0.00 | 0.31 | 0.03 | 94 | 1010.1 |
| 20260904064516 | 67 | 88 | 0.0 | 0.9 | 0.00 | 0.36 | 0.03 | 94 | 1010.2 |
| 20260904063016 | 68 | 88 | 0.0 | 0.0 | 0.00 | 0.36 | 0.03 | 94 | 1010.2 |
| 20260904061513 | 68 | 88 | 0.0 | 0.9 | 0.00 | 0.36 | 0.03 | 95 | 1010.5 |
| 20260904060012 | 68 | 88 | 0.0 | 0.0 | 0.00 | 0.36 | 0.03 | 94 | 1010.5 |
| 20260904054522 | 68 | 88 | 0.0 | 0.0 | 0.00 | 0.41 | 0.03 | 94 | 1010.6 |
| 20260904053009 | 68 | 88 | 0.0 | 0.9 | 0.01 | 0.41 | 0.03 | 94 | 1010.6 |
| 20260904051510 | 68 | 88 | 0.0 | 0.9 | 0.01 | 0.41 | 0.03 | 94 | 1010.9 |
| 20260904050014 | 68 | 88 | 0.0 | 0.9 | 0.01 | 0.41 | 0.03 | 94 | 1010.9 |
| 20260904044505 | 68 | 88 | 0.0 | 0.9 | 0.06 | 0.51 | 0.03 | 94 | 1011.1 |
| 20260904043011 | 68 | 88 | 0.0 | 0.9 | 0.05 | 0.50 | 0.02 | 94 | 1011.2 |
| 20260904041503 | 68 | 88 | 0.0 | 0.9 | 0.05 | 0.50 | 0.02 | 94 | 1011.5 |
| 20260904040001 | 68 | 88 | 0.0 | 1.7 | 0.05 | 0.50 | 0.02 | 93 | 1011.5 |
| 20260904034601 | 68 | 88 | 0.0 | 0.9 | 0.00 | 0.75 | 0.45 | 93 | 1011.6 |
| 20260904033100 | 68 | 88 | 0.0 | 0.0 | 0.00 | 0.75 | 0.45 | 93 | 1011.9 |